Location: Buckeye Ditch
(40.9104°N, 122.9517°W)
Time: 16:03:14
(UTC+00:00)

A-11 Canister half - Pass Details

Date: 21 May 2025
Orbit: 1515 x 1684 km, 47.2° (Epoch: 14 June)

Event Time Altitude Azimuth Distance (km) Brightness Sun altitude
Rises 05:22:42 0° 197° (SSW) 4,819 11.3 -17.8°
Reaches altitude 10° 05:26:21 10° 187° (S) 3,810 10.7 -18.2°
Maximum altitude 05:34:17 30° 131° (SE) 2,532 9.6 -19.1°
Drops below altitude 10° 05:42:00 10° 75° (ENE) 3,717 10.8 -20.0°
Sets 05:45:29 0° 65° (ENE) 4,686 11.4 -20.4°
